Regional Weather Roundup
Issued by NWS

Home | Current Version | Previous Version | Text Only | Print | Product List | Glossary On
Versions: 1 2 3 4 5 6 7 8 9 10 11 12 13 14 15 16 17 18 19 20 21 22 23 24 25 26 27 28 29 30 31 32 33 34 35 36 37 38 39 40 41 42 43 44 45 46 47 48 49 50
000
ASUS43 KLMK 301702
RWRKY
KENTUCKY REGIONAL WEATHER ROUNDUP
NATIONAL WEATHER SERVICE LOUISVILLE KY
100 PM EDT TUE AUG 30 2016

NOTE "FAIR" INDICATES FEW OR NO CLOUDS BELOW 12,000 FEET
WITH NO SIGNIFICANT WEATHER AND/OR OBSTRUCTIONS TO VISIBILITY.

KYZ001>023-026-027-061>063-070>075-301800-
WESTERN AND SOUTH CENTRAL KENTUCKY

CITY           SKY/WX    TMP DP  RH WIND       PRES   REMARKS
PADUCAH        SUNNY     90  73  57 N7        30.09F HX  98
HENDERSON      SUNNY     88  72  58 N3        30.09F HX  94
OWENSBORO      MOSUNNY   91  72  53 CALM      30.11F HX  98
HOPKINSVILLE   MOSUNNY   88  74  63 VRB2      30.09F HX  97
BOWLING GREEN  SUNNY     89  72  56 CALM      30.10F HX  96
GLASGOW        SUNNY     87  72  60 N3        30.11F HX  94
$$

KYZ024-025-028>034-038-045-046-053-301800-
NORTH CENTRAL KENTUCKY

CITY           SKY/WX    TMP DP  RH WIND       PRES   REMARKS
LOUISVILLE/SDF MOSUNNY   90  68  48 SE6       30.11F HX  94
LOUISVILLE/LOU MOSUNNY   89  68  49 CALM      30.12F HX  93
FORT KNOX      MOSUNNY   87  71  58 NE6       30.11F HX  92
$$

KYZ035>037-039>044-047>052-055>060-089>105-301800-
NORTHEAST KENTUCKY

CITY           SKY/WX    TMP DP  RH WIND       PRES   REMARKS
LEXINGTON      MOSUNNY   91  68  46 NE7       30.13F HX  95
COVINGTON      MOSUNNY   85  67  54 VRB5      30.15F
FRANKFORT      MOSUNNY   87  69  54 SE3       30.12F HX  91
$$

KYZ054-064>069-076>088-106>120-301800-
SOUTHEAST KENTUCKY

CITY           SKY/WX    TMP DP  RH WIND       PRES   REMARKS
JACKSON        MOSUNNY   84  71  65 CALM      30.16S
LONDON         SUNNY     86  66  51 VRB3      30.15S
SOMERSET       SUNNY     84  68  58 CALM      30.14F
MIDDLESBORO    SUNNY     87  69  55 S3        30.14F HX  90
MONTICELLO     SUNNY    N/A N/A N/A NW9       30.14F
$$




USA.gov is the U.S. government's official web portal to all federal, state and local government web resources and services.